Odessa, TX

2:56 PM CDT on August 21, 2017 (GMT -0500)
Odessa-Schlemeyer

Weather History for KODO - February, 2013

Change the Weather History Date:

Sunday, February 17, 2013

  Actual Average (KMAF) Record (KMAF)
Temperature  
Mean Temperature 54 °F -  
Max Temperature 71 °F 60 °F 83 °F (2000)
Min Temperature 37 °F 35 °F 11 °F (1936)
Degree Days  
Heating Degree Days 11    
Growing Degree Days 4 (Base 50)    
Moisture  
Dew Point 17 °F    
Average Humidity 27    
Maximum Humidity 55    
Minimum Humidity 10    
Precipitation  
Precipitation 0.00 in - - ()
Sea Level Pressure  
Sea Level Pressure 29.90 in    
Wind  
Wind Speed 10 mph (South)    
Max Wind Speed 21 mph    
Max Gust Speed 26 mph    
Visibility 10 miles    
Events      
Averages and records for this station are not official NWS values.
T = Trace of Precipitation, MM = Missing Value Source: NWS Daily Summary

Daily Weather History Graph

Daily Weather History Graph

Search for Another Location

Airport or City:

Trip Planner

Search our weather history database for the weather conditions in past years. The results will help you decide how hot, cold, wet, or windy it might be!

Date:

Astronomy

Feb. 17, 2013 Rise Set
Actual Time 7:29 AM CST 6:38 PM CST
Civil Twilight 7:04 AM CST 7:02 PM CST
Nautical Twilight 6:36 AM CST 7:31 PM CST
Astronomical Twilight 6:07 AM CST 7:59 PM CST
Moon 11:52 AM CST (2/17) 1:08 AM CST (2/17)
Length of Visible Light 11h 58m
Length of Day
11h 08m
Waxing Crescent, 49% of the Moon is Illuminated
Feb 17
Waxing Crescent
Feb 17
First Quarter
Feb 25
Full
Mar 4
Last Quarter
Mar 11
New

Hourly Weather History & Observations

Time (CST) Temp. Windchill Dew Point Humidity Pressure Visibility Wind Dir Wind Speed Gust Speed Precip Events Conditions
12:53 AM 45.0 °F 40.1 °F 15.1 °F 30% 30.05 in 10.0 mi South 9.2 mph - N/A   Clear
1:53 AM 44.1 °F 39.0 °F 15.1 °F 31% 30.03 in 10.0 mi South 9.2 mph - N/A   Clear
2:53 AM 43.0 °F 37.7 °F 17.1 °F 35% 30.02 in 10.0 mi South 9.2 mph - N/A   Clear
3:53 AM 42.1 °F 37.1 °F 18.0 °F 38% 30.00 in 10.0 mi SSW 8.1 mph - N/A   Clear
4:53 AM 39.0 °F 34.8 °F 19.0 °F 45% 29.99 in 10.0 mi SSW 5.8 mph - N/A   Clear
5:53 AM 39.0 °F 34.8 °F 18.0 °F 43% 30.00 in 10.0 mi SSW 5.8 mph - N/A   Clear
6:53 AM 37.0 °F 32.4 °F 18.0 °F 46% 29.99 in 10.0 mi South 5.8 mph - N/A   Clear
7:53 AM 37.9 °F 33.5 °F 18.0 °F 45% 30.00 in 10.0 mi South 5.8 mph - N/A   Clear
8:53 AM 45.0 °F 41.2 °F 17.1 °F 33% 30.00 in 10.0 mi SSW 6.9 mph - N/A   Clear
9:53 AM 52.0 °F - 17.1 °F 25% 30.00 in 10.0 mi SSW 8.1 mph - N/A   Clear
10:53 AM 57.9 °F - 15.1 °F 19% 29.97 in 10.0 mi SSW 10.4 mph - N/A   Clear
11:53 AM 63.0 °F - 14.0 °F 15% 29.94 in 10.0 mi South 10.4 mph - N/A   Clear
12:53 PM 66.0 °F - 10.9 °F 12% 29.90 in 10.0 mi South 15.0 mph - N/A   Clear
1:53 PM 66.9 °F - 8.1 °F 10% 29.85 in 10.0 mi South 13.8 mph 21.9 mph N/A   Clear
2:53 PM 69.1 °F - 9.0 °F 10% 29.81 in 10.0 mi South 16.1 mph 25.3 mph N/A   Clear
3:53 PM 71.1 °F - 10.9 °F 10% 29.77 in 10.0 mi South 20.7 mph 25.3 mph N/A   Clear
4:53 PM 69.1 °F - 14.0 °F 12% 29.76 in 10.0 mi South 20.7 mph 26.5 mph N/A   Clear
5:53 PM 66.0 °F - 16.0 °F 15% 29.75 in 10.0 mi South 15.0 mph 24.2 mph N/A   Clear
6:53 PM 63.0 °F - 17.1 °F 17% 29.77 in 10.0 mi South 15.0 mph - N/A   Clear
7:53 PM 60.1 °F - 18.0 °F 20% 29.78 in 10.0 mi South 11.5 mph 23.0 mph N/A   Clear
8:53 PM 57.9 °F - 24.1 °F 27% 29.77 in 10.0 mi South 13.8 mph 24.2 mph N/A   Clear
9:53 PM 55.9 °F - 30.0 °F 37% 29.76 in 10.0 mi South 18.4 mph 24.2 mph N/A   Clear
11:53 PM 55.0 °F - 39.0 °F 55% 29.74 in 10.0 mi South 18.4 mph 24.2 mph N/A   Clear